Content
SEND FEEDBACK

Daily
Averages
Monthly
Summary
Greece

METHONI, GREECE


Home > Europe > Greece
Elevation: 108 feet     Latitude: 36 50N     Longitude: 021 42E

WEATHER
 
SELECT A DAY
Number of Records: 251,432;   Date Range: 7/1/96 - 10/21/14
 
SHARE

PRINT THIS DATA

[ ← Previous Day ]
WEATHER ALMANAC - FEBRUARY 13, 2013
[ Next Day → ]
[ °C ]   °F
Weather ElementAverageHighLow
Temperature54.7 °F60.8 °F (1:20 pm)46.4 °F (10:50 pm)
Dewpoint46.2 °F50 °F (4:50 am)41 °F (2:20 pm)
Humidity74 %93 % (6:50 am)51 % (2:20 pm)
Barometer29.88 in29.89 in (6:20 am)29.83 in (4:50 am)
Wind Speed8.2 mph26.5 mph (4:50 am)
Wind Gust42.6 mph (5:50 am)
Weather ElementAverage
Visibility5.2 mi
Wind DirectionSE (130.9 °)

Weather ElementTotal
Precipitation---
Heating Degree Days11.4 (Base 65)
Growing Degree Days3.6 (Base 50)
Averaged from 32 records on February 13, 2013
WEATHER CONDITIONS BREAKOUT
WIND DIRECTION BREAKOUT
WEATHER BY HOUR - FEBRUARY 13, 2013
[ °C ]   °F
Local TimeTemperatureDewpointHumidityBarometerVisibilityWind DirectionWind SpeedGust SpeedPrecipitationEventsConditions
4:50 AM57.2 °F50.0 °F77 %29.83 in5.0 miSSE (160°)26.5 mph40.3 mphRain-ThunderstormLight Thunderstorms and Rain
5:20 AM57.2 °F50.0 °F77 %29.83 in5.0 miSSE (150°)20.7 mph41.4 mphRain-ThunderstormThunderstorms and Rain
5:50 AM55.4 °F48.2 °F77 %29.83 in3.1 miSouth (180°)24.2 mph42.6 mphRain-ThunderstormHeavy Thunderstorms and Rain
6:20 AM51.8 °F44.6 °F76 %29.89 in3.7 miWSW (240°)16.1 mph34.5 mphRain-ThunderstormLight Thunderstorms and Rain
6:50 AM48.2 °F46.4 °F93 %29.89 in3.1 miWest (260°)10.4 mphRain-ThunderstormThunderstorms and Rain
7:20 AM48.2 °F46.4 °F93 %29.89 in3.7 miEast (90°)6.9 mphRain-ThunderstormLight Thunderstorms and Rain
7:50 AM48.2 °F46.4 °F93 %29.89 in3.7 miSE (130°)8.1 mphThunderstormThunderstorm
8:20 AM50.0 °F46.4 °F87 %29.89 in4.3 miESE (120°)9.2 mphOvercast
8:50 AM51.8 °F48.2 °F88 %29.89 in4.3 miSSE (150°)5.8 mphLight Drizzle
9:20 AM51.8 °F48.2 °F88 %29.89 in4.3 miSE (130°)5.8 mphOvercast
9:50 AM55.4 °F46.4 °F72 %29.89 in5.0 miSouth (180°)10.4 mphOvercast
10:20 AM53.6 °F48.2 °F82 %29.89 in4.3 miSE (140°)8.1 mphOvercast
10:50 AM55.4 °F48.2 °F77 %29.89 in5.0 miSSE (150°)6.9 mphMostly Cloudy
11:20 AM57.2 °F50.0 °F77 %29.89 in5.0 miSSE (150°)9.2 mphOvercast
11:50 AM57.2 °F50.0 °F77 %29.89 in5.0 miSE (140°)9.2 mphOvercast
12:20 PM57.2 °F48.2 °F72 %29.89 in5.6 miSSE (160°)10.4 mphMostly Cloudy
12:50 PM59.0 °F48.2 °F67 %29.89 in5.6 miSSW (200°)9.2 mphRainLight Rain
1:20 PM60.8 °F48.2 °F63 %29.89 in6.2 miSouth (180°)10.4 mphScattered Clouds
1:50 PM60.8 °F44.6 °F55 %29.89 in6.2 miSouth (170°)11.5 mphScattered Clouds
2:20 PM59.0 °F41.0 °F51 %29.89 in6.2 miSSW (200°)10.4 mphScattered Clouds
2:50 PM59.0 °F42.8 °F55 %29.89 in6.2 miSW (230°)9.2 mphScattered Clouds
3:20 PM59.0 °F42.8 °F55 %29.89 in6.2 miSSW (200°)5.8 mphScattered Clouds
3:50 PM59.0 °F44.6 °F59 %29.89 in6.2 miSouth (170°)6.9 mphScattered Clouds
4:20 PM57.2 °F44.6 °F63 %29.89 in6.2 miSSE (160°)5.8 mphScattered Clouds
4:50 PM57.2 °F44.6 °F63 %29.89 in6.2 miSSE (150°)4.6 mphScattered Clouds
5:20 PM57.2 °F44.6 °F63 %29.89 in6.2 miCalmScattered Clouds
5:50 PM55.4 °F44.6 °F67 %29.89 in6.2 miCalmScattered Clouds
6:20 PM53.6 °F42.8 °F67 %29.89 in6.2 miCalmScattered Clouds
6:50 PM50.0 °F44.6 °F82 %29.89 in6.2 miCalmPartly Cloudy
7:20 PM51.8 °F44.6 °F76 %29.89 in6.2 miCalmPartly Cloudy
7:50 PM50.0 °F44.6 °F82 %29.89 in6.2 miCalmPartly Cloudy
10:50 PM46.4 °F44.6 °F93 %29.89 inCalmClear
Hourly data recorded from LGKL, located miles away from Methoni, Greece







STORIES FROM OUR PARTNERS